LiveATC.Net - Listen to live air traffic control over the Internet!


ICAO: KPWT  IATA: PWT   Airport: Bremerton National Airport
City: Bremerton   State/Province: Washington
Country: United States   Continent: North America
KPWT METAR Weather: KPWT 061656Z AUTO 05006KT 7SM BKN002 13/13 A3018 RMK AO2 SLP225 T01280128
KPWT ADS-B Flight Tracking (ADSBExchange)
KPWT Flight Activity (FlightAware)
KPWT Webcam:  (Airport Webcams) 
KPWT Airport Info   (iFlightPlanner)
KPWT VFR Sectional Chart   (iFlightPlanner) 
KPWT IFR Low Altitude Chart   (iFlightPlanner) 
KPWT IFR High Altitude Chart   (iFlightPlanner) 

KPWT CTAF
Feed Status: UP   Listeners: 0
Listen in your browser - HTML5 player (in browser, HTML5)
Click here to listen with your own player (launches your MP3 player)
Archive Access: KPWT CTAF
FacilityFrequency
Bremerton CTAF123.050

NOTICE

Unauthorized use prohibited. See LiveATC.net Terms of Service


Airport/ARTCC Code
Frequency Search
(e.g., 124.400, 128.75)
Site-wide search
 


Browse Feeds
Top 50 Feeds
HF Oceanic Feeds
Coverage Map
Bad Weather Areas

LiveATC FAQ
Offer LiveATC feed
Contact LiveATC.net
Press Inquiries

LiveATC on iPhone
LiveATC on Android

LiveATC Mobile
(Mobile browser)

ATC Audio Archives
Interesting Recordings

LiveATC Forums


Home Page
About LiveATC.net


Terms of Use
Privacy Policy

AIRMETs/SIGMETs

FAA Airport Status
NAS Status
Arrival Demand


Server Software By:
Icecast.org
Liquidsoap